Location: Newark
(40.3500°N, 15.2333°E)
Time: 04:23:55
(UTC+00:00)

Altair - Pass Details

Date: 19 January 2020
Orbit: 1502 x 1682 km, 47.2° (Epoch: 17 February)

Event Time Altitude Azimuth Distance (km) Brightness Sun altitude
Rises 10:17:50 0° 253° (WSW) 4,912 10.2 28.1°
Reaches altitude 10° 10:21:01 10° 256° (WSW) 3,935 9.7 28.2°
Maximum altitude 10:31:11 72° 340° (NNW) 1,752 8.1 28.6°
Drops below altitude 10° 10:41:17 10° 65° (ENE) 3,910 9.5 28.9°
Sets 10:44:26 0° 68° (ENE) 4,880 10.0 29.0°
